Total_Precipitation_Accumulation
0.27 0.27 0.30 0.46 0.55 0.53 0.62 0.67 0.71 0.72 0.79 0.95 1.03 1.04 1.01 0.92 0.79 0.73 0.66 0.58 0.53 0.58 0.68 0.77 0.87 0.90 0.98 1.12 1.34 1.40 1.23 1.04 0.97 1.00 0.99 0.93 0.89 0.83 0.75 0.74 0.74 0.79 0.78 0.78
0.30 0.25 0.26 0.28 0.27 0.31 0.36 0.40 0.48 0.62 0.80 0.85 0.86 0.82 0.75 0.63 0.52 0.49 0.47 0.46 0.46 0.49 0.55 0.57 0.61 0.69 0.84 0.92 0.99 0.98 0.89 0.83 0.83 0.81 0.78 0.77 0.79 0.77 0.71 0.64 0.60 0.63 0.64 0.71
0.44 0.28 0.34 0.32 0.22 0.26 0.35 0.37 0.49 0.74 0.87 0.75 0.69 0.63 0.59 0.46 0.36 0.36 0.36 0.39 0.42 0.42 0.44 0.41 0.44 0.49 0.53 0.62 0.72 0.69 0.62 0.58 0.62 0.69 0.67 0.66 0.75 0.77 0.75 0.71 0.66 0.63 0.64 0.69
0.56 0.51 0.52 0.30 0.17 0.19 0.28 0.36 0.45 0.60 0.63 0.55 0.53 0.48 0.41 0.35 0.31 0.31 0.33 0.34 0.33 0.32 0.34 0.34 0.37 0.41 0.45 0.49 0.56 0.61 0.55 0.50 0.50 0.56 0.61 0.66 0.71 0.75 0.73 0.70 0.68 0.74 0.73 0.75
0.65 0.70 0.44 0.21 0.17 0.19 0.23 0.28 0.30 0.36 0.38 0.37 0.38 0.41 0.41 0.34 0.31 0.29 0.27 0.28 0.28 0.29 0.33 0.37 0.40 0.43 0.40 0.38 0.42 0.47 0.50 0.51 0.51 0.51 0.56 0.62 0.64 0.64 0.66 0.66 0.64 0.70 0.80 0.81
0.69 0.77 0.58 0.32 0.20 0.19 0.22 0.34 0.27 0.27 0.27 0.28 0.30 0.47 0.52 0.37 0.28 0.25 0.25 0.25 0.27 0.30 0.34 0.36 0.40 0.42 0.42 0.38 0.37 0.39 0.44 0.49 0.55 0.59 0.58 0.57 0.63 0.70 0.70 0.69 0.69 0.70 0.71 0.69
0.61 0.71 0.46 0.24 0.20 0.24 0.43 0.47 0.25 0.22 0.23 0.25 0.32 0.41 0.44 0.38 0.31 0.26 0.29 0.30 0.30 0.32 0.32 0.35 0.38 0.42 0.46 0.46 0.44 0.45 0.47 0.52 0.54 0.54 0.57 0.62 0.65 0.71 0.75 0.73 0.69 0.64 0.61 0.60
0.59 0.70 0.51 0.22 0.22 0.36 0.41 0.25 0.19 0.18 0.20 0.23 0.28 0.29 0.29 0.31 0.29 0.27 0.27 0.29 0.31 0.34 0.33 0.37 0.38 0.39 0.40 0.44 0.48 0.47 0.43 0.45 0.47 0.49 0.53 0.60 0.67 0.67 0.69 0.73 0.73 0.68 0.61 0.57
0.53 0.49 0.34 0.25 0.27 0.28 0.24 0.21 0.17 0.15 0.16 0.20 0.24 0.25 0.25 0.26 0.27 0.27 0.27 0.28 0.29 0.33 0.35 0.40 0.44 0.43 0.45 0.52 0.55 0.47 0.43 0.46 0.50 0.54 0.58 0.60 0.67 0.69 0.70 0.72 0.74 0.74 0.75 0.71
0.40 0.31 0.21 0.21 0.22 0.22 0.19 0.18 0.17 0.16 0.18 0.22 0.24 0.25 0.28 0.26 0.27 0.29 0.29 0.29 0.31 0.35 0.40 0.45 0.48 0.51 0.54 0.59 0.60 0.55 0.52 0.53 0.57 0.60 0.65 0.68 0.69 0.74 0.76 0.77 0.80 0.79 0.76 0.76
0.38 0.30 0.22 0.19 0.18 0.17 0.17 0.18 0.18 0.19 0.21 0.25 0.27 0.27 0.31 0.31 0.32 0.34 0.33 0.31 0.33 0.37 0.40 0.47 0.50 0.52 0.56 0.58 0.61 0.58 0.55 0.56 0.61 0.63 0.69 0.75 0.75 0.76 0.81 0.85 0.95 0.95 0.87 0.84
0.45 0.35 0.34 0.26 0.20 0.16 0.17 0.20 0.19 0.21 0.21 0.21 0.22 0.25 0.27 0.31 0.37 0.41 0.42 0.40 0.40 0.43 0.48 0.51 0.52 0.53 0.54 0.56 0.59 0.58 0.58 0.60 0.61 0.64 0.68 0.72 0.79 0.82 0.87 0.88 0.97 0.98 0.98 0.95
0.37 0.31 0.30 0.26 0.20 0.18 0.21 0.23 0.20 0.20 0.21 0.19 0.19 0.23 0.27 0.32 0.37 0.48 0.56 0.59 0.56 0.54 0.55 0.55 0.55 0.58 0.57 0.56 0.56 0.58 0.57 0.61 0.63 0.63 0.67 0.72 0.75 0.81 0.84 0.82 0.82 0.83 0.85 0.88
0.25 0.24 0.25 0.23 0.21 0.19 0.19 0.19 0.19 0.18 0.17 0.17 0.20 0.27 0.34 0.38 0.40 0.47 0.57 0.64 0.68 0.63 0.61 0.57 0.58 0.62 0.57 0.50 0.53 0.57 0.58 0.63 0.67 0.67 0.70 0.74 0.74 0.74 0.77 0.80 0.78 0.73 0.72 0.77
0.20 0.20 0.24 0.22 0.21 0.20 0.18 0.19 0.20 0.20 0.19 0.18 0.21 0.30 0.41 0.43 0.43 0.44 0.50 0.56 0.60 0.59 0.56 0.55 0.58 0.62 0.55 0.47 0.50 0.55 0.58 0.59 0.63 0.69 0.71 0.70 0.70 0.72 0.71 0.72 0.73 0.71 0.73 0.76
0.18 0.19 0.22 0.24 0.25 0.24 0.24 0.26 0.28 0.28 0.25 0.25 0.26 0.32 0.42 0.46 0.44 0.43 0.46 0.50 0.56 0.58 0.55 0.56 0.61 0.63 0.55 0.49 0.47 0.51 0.57 0.69 0.71 0.69 0.66 0.67 0.69 0.71 0.73 0.76 0.79 0.78 0.78 0.82
0.23 0.24 0.26 0.27 0.27 0.27 0.29 0.33 0.36 0.35 0.33 0.31 0.34 0.38 0.44 0.47 0.46 0.45 0.45 0.48 0.56 0.62 0.59 0.57 0.60 0.62 0.58 0.54 0.52 0.54 0.60 0.70 0.74 0.68 0.62 0.63 0.69 0.73 0.72 0.72 0.75 0.79 0.79 0.83
0.25 0.26 0.26 0.28 0.28 0.28 0.30 0.33 0.33 0.34 0.34 0.33 0.36 0.41 0.48 0.51 0.49 0.48 0.45 0.48 0.55 0.61 0.61 0.59 0.57 0.60 0.54 0.51 0.53 0.57 0.60 0.67 0.70 0.67 0.64 0.67 0.72 0.74 0.73 0.69 0.68 0.68 0.69 0.75
0.26 0.27 0.26 0.24 0.25 0.28 0.33 0.34 0.31 0.30 0.31 0.33 0.36 0.45 0.56 0.56 0.53 0.50 0.48 0.53 0.58 0.61 0.61 0.61 0.67 0.61 0.54 0.54 0.57 0.55 0.58 0.60 0.62 0.66 0.69 0.77 0.78 0.76 0.74 0.71 0.69 0.68 0.69 0.71
0.27 0.27 0.26 0.22 0.20 0.23 0.32 0.36 0.34 0.31 0.32 0.35 0.41 0.50 0.56 0.56 0.53 0.52 0.52 0.59 0.64 0.65 0.64 0.68 0.65 0.58 0.55 0.58 0.62 0.56 0.59 0.64 0.67 0.69 0.70 0.73 0.74 0.77 0.77 0.76 0.74 0.71 0.71 0.74
0.27 0.29 0.29 0.28 0.25 0.26 0.32 0.35 0.32 0.34 0.36 0.39 0.47 0.58 0.60 0.59 0.59 0.59 0.61 0.69 0.67 0.65 0.66 0.77 0.70 0.65 0.65 0.72 0.69 0.62 0.66 0.67 0.70 0.73 0.73 0.75 0.77 0.77 0.79 0.80 0.79 0.79 0.80 0.78
0.30 0.32 0.32 0.33 0.35 0.33 0.33 0.35 0.34 0.37 0.36 0.35 0.41 0.49 0.56 0.60 0.61 0.60 0.62 0.69 0.72 0.77 0.72 0.71 0.75 0.81 0.84 0.81 0.69 0.71 0.75 0.75 0.74 0.76 0.81 0.83 0.84 0.85 0.83 0.83 0.83 0.83 0.82 0.83
0.33 0.33 0.34 0.34 0.38 0.40 0.40 0.39 0.37 0.38 0.38 0.39 0.42 0.45 0.55 0.58 0.59 0.62 0.68 0.65 0.65 0.76 0.75 0.75 0.86 0.92 0.90 0.75 0.70 0.75 0.81 0.83 0.84 0.85 0.88 0.92 0.95 0.93 0.90 0.86 0.85 0.85 0.85 0.85
0.33 0.34 0.33 0.32 0.34 0.38 0.42 0.40 0.38 0.41 0.43 0.45 0.45 0.50 0.58 0.62 0.62 0.61 0.67 0.74 0.77 0.79 0.73 0.81 0.94 0.93 0.88 0.75 0.76 0.82 0.84 0.86 0.87 0.88 0.88 0.89 0.94 0.97 0.97 0.94 0.90 0.86 0.85 0.85
0.39 0.38 0.36 0.37 0.40 0.43 0.43 0.38 0.37 0.38 0.41 0.47 0.51 0.56 0.61 0.69 0.76 0.74 0.70 0.72 0.79 0.79 0.72 0.80 0.91 0.93 0.83 0.80 0.83 0.87 0.89 0.93 0.96 0.93 0.90 0.93 0.96 1.00 1.01 1.01 0.99 0.94 0.91 0.91
0.42 0.40 0.39 0.39 0.43 0.48 0.48 0.45 0.44 0.41 0.44 0.53 0.60 0.64 0.63 0.67 0.71 0.75 0.76 0.76 0.80 0.85 0.78 0.78 0.80 0.82 0.78 0.82 0.85 0.86 0.87 0.94 0.98 0.96 0.95 0.96 0.98 1.03 1.06 1.06 1.04 1.03 1.02 1.01
0.47 0.46 0.45 0.42 0.43 0.46 0.47 0.49 0.52 0.52 0.53 0.61 0.69 0.73 0.71 0.72 0.74 0.78 0.79 0.79 0.80 0.79 0.78 0.77 0.77 0.79 0.82 0.84 0.86 0.86 0.86 0.89 0.93 0.95 0.98 1.01 1.02 1.06 1.11 1.14 1.14 1.12 1.13 1.16